| time (UTC) | temp F | wind direction | speed MPH | gust MPH | rain 1hr in | rain 24hr in | rain mn in | humidity % | barometer mb |
| 20260507183329 | 57 | 285 | 1.0 | 10.0 | 0.00 | 0.01 | 0.00 | 18 | 1027.0 |
| 20260507181843 | 57 | 204 | 7.0 | 11.0 | 0.00 | 0.02 | 0.00 | 19 | 1027.1 |
| 20260507180315 | 56 | 179 | 3.0 | 10.0 | 0.00 | 0.02 | 0.00 | 21 | 1027.2 |
| 20260507174825 | 56 | 233 | 6.0 | 10.0 | 0.00 | 0.02 | 0.00 | 21 | 1027.3 |
| 20260507173325 | 55 | 226 | 5.0 | 7.0 | 0.00 | 0.02 | 0.00 | 22 | 1027.6 |
| 20260507171817 | 53 | 173 | 2.0 | 12.0 | 0.00 | 0.04 | 0.00 | 26 | 1027.7 |
| 20260507170355 | 52 | 149 | 5.0 | 10.0 | 0.00 | 0.04 | 0.00 | 27 | 1027.7 |
| 20260507164832 | 51 | 179 | 5.0 | 9.0 | 0.00 | 0.04 | 0.00 | 30 | 1027.7 |
| 20260507163320 | 49 | 174 | 4.0 | 10.0 | 0.00 | 0.04 | 0.00 | 30 | 1027.8 |
| 20260507161820 | 48 | 183 | 3.0 | 10.0 | 0.00 | 0.08 | 0.00 | 29 | 1027.8 |
| 20260507160334 | 47 | 213 | 2.0 | 8.0 | 0.00 | 0.08 | 0.00 | 31 | 1027.7 |
| 20260507154826 | 46 | 192 | 2.0 | 5.0 | 0.00 | 0.08 | 0.00 | 31 | 1027.5 |
| 20260507153314 | 45 | 181 | 3.0 | 8.0 | 0.00 | 0.08 | 0.00 | 35 | 1027.6 |
| 20260507151827 | 43 | 194 | 4.0 | 9.0 | 0.00 | 0.13 | 0.00 | 35 | 1027.5 |
| 20260507150322 | 42 | 220 | 2.0 | 7.0 | 0.00 | 0.13 | 0.00 | 38 | 1027.7 |
| 20260507144814 | 40 | 197 | 1.0 | 5.0 | 0.00 | 0.13 | 0.00 | 36 | 1027.6 |
| 20260507143330 | 35 | 54 | 0.0 | 3.0 | 0.00 | 0.13 | 0.00 | 45 | 1027.3 |
| 20260507141822 | 29 | 54 | 0.0 | 0.0 | 0.00 | 0.13 | 0.00 | 66 | 1027.3 |
| 20260507140316 | 26 | 54 | 0.0 | 0.0 | 0.00 | 0.13 | 0.00 | 77 | 1027.2 |
| 20260507134831 | 24 | 54 | 0.0 | 0.0 | 0.00 | 0.13 | 0.00 | 80 | 1027.2 |
| 20260507133326 | 23 | 54 | 0.0 | 0.0 | 0.00 | 0.13 | 0.00 | 79 | 1027.2 |
| 20260507131813 | 23 | 54 | 0.0 | 0.0 | 0.00 | 0.13 | 0.00 | 77 | 1027.2 |
| 20260507130327 | 23 | 54 | 0.0 | 0.0 | 0.00 | 0.13 | 0.00 | 77 | 1027.2 |
| 20260507124828 | 23 | 54 | 0.0 | 0.0 | 0.00 | 0.13 | 0.00 | 75 | 1027.0 |
| 20260507123316 | 23 | 54 | 2.0 | 3.0 | 0.00 | 0.13 | 0.00 | 75 | 1027.1 |
| 20260507121836 | 23 | 54 | 0.0 | 0.0 | 0.00 | 0.13 | 0.00 | 74 | 1027.3 |
| 20260507120323 | 24 | 54 | 0.0 | 0.0 | 0.00 | 0.13 | 0.00 | 73 | 1027.4 |
| 20260507114817 | 24 | 54 | 0.0 | 3.0 | 0.00 | 0.13 | 0.00 | 71 | 1027.2 |
| 20260507113317 | 25 | 54 | 0.0 | 0.0 | 0.00 | 0.13 | 0.00 | 70 | 1027.1 |
| 20260507111847 | 25 | 54 | 2.0 | 4.0 | 0.00 | 0.13 | 0.00 | 70 | 1027.2 |
| 20260507110325 | 26 | 54 | 2.0 | 3.0 | 0.00 | 0.13 | 0.00 | 66 | 1026.9 |
| 20260507104819 | 27 | 54 | 2.0 | 5.0 | 0.00 | 0.13 | 0.00 | 64 | 1026.9 |
| 20260507103314 | 27 | 56 | 4.0 | 6.0 | 0.00 | 0.13 | 0.00 | 61 | 1026.7 |
| 20260507101827 | 27 | 54 | 3.0 | 7.0 | 0.00 | 0.13 | 0.00 | 62 | 1026.7 |
| 20260507100321 | 28 | 54 | 3.0 | 5.0 | 0.00 | 0.13 | 0.00 | 61 | 1026.6 |
| 20260507094815 | 29 | 59 | 4.0 | 9.0 | 0.00 | 0.13 | 0.00 | 59 | 1026.6 |
| 20260507093331 | 29 | 58 | 5.0 | 9.0 | 0.00 | 0.13 | 0.00 | 59 | 1026.4 |
| 20260507091822 | 29 | 37 | 4.0 | 9.0 | 0.00 | 0.13 | 0.00 | 59 | 1026.4 |
| 20260507090315 | 28 | 28 | 4.0 | 7.0 | 0.00 | 0.13 | 0.00 | 61 | 1026.5 |
| 20260507084830 | 27 | 38 | 3.0 | 7.0 | 0.00 | 0.13 | 0.00 | 62 | 1026.5 |
| 20260507083325 | 25 | 29 | 2.0 | 7.0 | 0.00 | 0.13 | 0.00 | 71 | 1026.7 |
| 20260507081818 | 26 | 40 | 0.0 | 0.0 | 0.00 | 0.13 | 0.00 | 72 | 1026.9 |
| 20260507080312 | 27 | 40 | 0.0 | 0.0 | 0.00 | 0.13 | 0.00 | 69 | 1026.8 |
| 20260507074826 | 27 | 40 | 0.0 | 6.0 | 0.00 | 0.13 | 0.00 | 68 | 1026.9 |
| 20260507073322 | 26 | 48 | 2.0 | 7.0 | 0.00 | 0.13 | 0.00 | 70 | 1026.9 |
| 20260507071835 | 26 | 170 | 0.0 | 4.0 | 0.00 | 0.13 | 0.00 | 73 | 1026.9 |
| 20260507070330 | 26 | 170 | 0.0 | 3.0 | 0.00 | 0.13 | 0.00 | 72 | 1026.8 |
| 20260507064815 | 26 | 171 | 0.0 | 3.0 | 0.00 | 0.13 | 0.00 | 73 | 1026.6 |
| 20260507063339 | 26 | 171 | 0.0 | 3.0 | 0.00 | 0.13 | 0.00 | 71 | 1026.5 |
| 20260507061831 | 26 | 171 | 0.0 | 3.0 | 0.00 | 0.13 | 0.13 | 71 | 1026.5 |
| 20260507060318 | 27 | 171 | 0.0 | 0.0 | 0.00 | 0.13 | 0.13 | 69 | 1026.6 |
| 20260507054840 | 27 | 171 | 0.0 | 0.0 | 0.00 | 0.13 | 0.13 | 68 | 1026.6 |
| 20260507053335 | 28 | 171 | 0.0 | 0.0 | 0.00 | 0.13 | 0.13 | 64 | 1026.4 |
| 20260507051821 | 29 | 171 | 0.0 | 2.0 | 0.00 | 0.14 | 0.13 | 61 | 1026.2 |
| 20260507050316 | 30 | 171 | 0.0 | 5.0 | 0.00 | 0.14 | 0.13 | 59 | 1026.1 |
| 20260507044814 | 31 | 171 | 0.0 | 4.0 | 0.00 | 0.14 | 0.13 | 55 | 1026.1 |
| 20260507043331 | 32 | 171 | 3.0 | 4.0 | 0.00 | 0.14 | 0.13 | 56 | 1026.0 |
| 20260507041824 | 34 | 172 | 0.0 | 1.0 | 0.00 | 0.15 | 0.13 | 53 | 1025.7 |
| 20260507040318 | 36 | 172 | 1.0 | 4.0 | 0.00 | 0.15 | 0.13 | 45 | 1025.4 |
| 20260507034852 | 38 | 172 | 1.0 | 5.0 | 0.00 | 0.15 | 0.13 | 37 | 1025.4 |
| 20260507033326 | 39 | 171 | 1.0 | 10.0 | 0.00 | 0.15 | 0.13 | 36 | 1025.0 |
| 20260507031820 | 39 | 129 | 5.0 | 9.0 | 0.00 | 0.16 | 0.13 | 31 | 1024.7 |
| 20260507030314 | 40 | 193 | 6.0 | 12.0 | 0.00 | 0.16 | 0.13 | 32 | 1024.5 |
| 20260507024849 | 41 | 179 | 4.0 | 9.0 | 0.00 | 0.16 | 0.13 | 31 | 1024.1 |
| 20260507023323 | 41 | 177 | 5.0 | 14.0 | 0.00 | 0.16 | 0.13 | 31 | 1024.0 |
| 20260507021816 | 42 | 204 | 6.0 | 10.0 | 0.00 | 0.19 | 0.13 | 31 | 1024.0 |
| 20260507020352 | 43 | 193 | 6.0 | 15.0 | 0.00 | 0.19 | 0.13 | 28 | 1023.6 |
| 20260507014824 | 44 | 199 | 5.0 | 12.0 | 0.00 | 0.19 | 0.13 | 27 | 1023.4 |
| 20260507013340 | 45 | 264 | 5.0 | 13.0 | 0.00 | 0.19 | 0.13 | 25 | 1023.3 |
| 20260507011812 | 46 | 242 | 7.0 | 17.0 | 0.00 | 0.21 | 0.13 | 27 | 1023.2 |
| 20260507010324 | 48 | 189 | 9.0 | 17.0 | 0.00 | 0.21 | 0.13 | 26 | 1023.1 |
| 20260507004817 | 49 | 306 | 9.0 | 17.0 | 0.00 | 0.21 | 0.13 | 34 | 1023.4 |
| 20260507003313 | 47 | 297 | 5.0 | 19.0 | 0.00 | 0.21 | 0.13 | 40 | 1022.8 |
| 20260507001826 | 48 | 259 | 6.0 | 17.0 | 0.00 | 0.25 | 0.13 | 35 | 1022.5 |
| 20260507000314 | 45 | 263 | 7.0 | 17.0 | 0.00 | 0.25 | 0.13 | 43 | 1022.4 |
| 20260506234835 | 44 | 282 | 4.0 | 15.0 | 0.00 | 0.25 | 0.13 | 47 | 1022.2 |
| 20260506233330 | 45 | 198 | 6.0 | 14.0 | 0.00 | 0.25 | 0.13 | 44 | 1022.2 |
| 20260506231842 | 45 | 254 | 7.0 | 19.0 | 0.00 | 0.28 | 0.13 | 45 | 1022.3 |
| 20260506230315 | 46 | 286 | 5.0 | 15.0 | 0.00 | 0.28 | 0.13 | 44 | 1022.2 |
| 20260506224828 | 47 | 222 | 9.0 | 23.0 | 0.00 | 0.28 | 0.13 | 41 | 1022.0 |
| 20260506223324 | 49 | 179 | 6.0 | 16.0 | 0.00 | 0.28 | 0.13 | 45 | 1021.7 |
| 20260506221817 | 48 | 252 | 7.0 | 14.0 | 0.00 | 0.29 | 0.13 | 43 | 1021.6 |
| 20260506220331 | 49 | 267 | 9.0 | 16.0 | 0.00 | 0.29 | 0.13 | 40 | 1021.3 |
| 20260506214824 | 48 | 271 | 7.0 | 16.0 | 0.00 | 0.29 | 0.13 | 42 | 1021.4 |
| 20260506213316 | 47 | 268 | 7.0 | 18.0 | 0.00 | 0.29 | 0.13 | 50 | 1021.5 |
| 20260506211836 | 45 | 199 | 2.0 | 13.0 | 0.00 | 0.29 | 0.13 | 61 | 1021.4 |
| 20260506210329 | 44 | 233 | 7.0 | 11.0 | 0.00 | 0.29 | 0.13 | 68 | 1021.6 |
| 20260506204823 | 42 | 191 | 5.0 | 10.0 | 0.00 | 0.29 | 0.13 | 76 | 1021.6 |
| 20260506203339 | 43 | 179 | 4.0 | 13.0 | 0.00 | 0.29 | 0.13 | 71 | 1021.7 |
| 20260506201832 | 48 | 201 | 9.0 | 22.0 | 0.00 | 0.29 | 0.13 | 50 | 1021.5 |
| 20260506200318 | 48 | 285 | 11.0 | 22.0 | 0.00 | 0.29 | 0.13 | 46 | 1020.7 |
| 20260506194839 | 47 | 226 | 5.0 | 14.0 | 0.00 | 0.29 | 0.13 | 52 | 1020.8 |
| 20260506193334 | 45 | 264 | 5.0 | 13.0 | 0.00 | 0.29 | 0.13 | 54 | 1020.8 |
| 20260506191846 | 45 | 239 | 7.0 | 16.0 | 0.01 | 0.29 | 0.13 | 57 | 1021.2 |
| 20260506190338 | 44 | 244 | 4.0 | 12.0 | 0.01 | 0.29 | 0.13 | 68 | 1021.3 |
| 20260506184831 | 44 | 257 | 4.0 | 14.0 | 0.01 | 0.29 | 0.13 | 63 | 1021.2 |